TimeAKST,TemperatureF,Dew PointF,Humidity,Sea Level PressureIn,VisibilityMPH,Wind Direction,Wind SpeedMPH,Gust SpeedMPH,PrecipitationIn,Events,Conditions,WindDirDegrees,DateUTC
12:53 AM,18.0,3.9,54,30.09,10.0,NNE,5.8,-,N/A,,Clear,20,2013-12-24 09:53:00
1:53 AM,17.1,1.9,52,30.07,10.0,NE,8.1,-,N/A,,Clear,40,2013-12-24 10:53:00
3:53 AM,12.0,1.9,64,30.06,10.0,NNE,5.8,-,N/A,,Clear,30,2013-12-24 12:53:00
4:53 AM,12.9,1.9,62,30.04,10.0,NE,5.8,-,N/A,,Clear,50,2013-12-24 13:53:00
5:53 AM,8.1,-0.0,70,30.02,10.0,NNE,3.5,-,N/A,,Clear,30,2013-12-24 14:53:00
6:53 AM,12.9,3.0,65,30.01,10.0,North,3.5,-,N/A,,Clear,10,2013-12-24 15:53:00
7:53 AM,12.0,1.9,64,30.01,10.0,NNE,5.8,-,N/A,,Clear,20,2013-12-24 16:53:00
8:53 AM,12.0,3.0,67,29.99,10.0,NNE,3.5,-,N/A,,Mostly Cloudy,20,2013-12-24 17:53:00
9:53 AM,12.0,3.0,67,29.98,10.0,Calm,Calm,-,N/A,,Mostly Cloudy,0,2013-12-24 18:53:00
10:53 AM,14.0,3.9,64,29.96,10.0,NNE,3.5,-,N/A,,Overcast,30,2013-12-24 19:53:00
11:53 AM,14.0,5.0,67,29.94,10.0,NNE,4.6,-,N/A,,Overcast,30,2013-12-24 20:53:00
12:53 PM,16.0,6.1,65,29.91,10.0,Calm,Calm,-,N/A,,Mostly Cloudy,0,2013-12-24 21:53:00
1:53 PM,17.1,6.1,62,29.88,10.0,Calm,Calm,-,N/A,,Overcast,0,2013-12-24 22:53:00
2:53 PM,18.0,9.0,68,29.84,10.0,East,5.8,-,N/A,,Overcast,90,2013-12-24 23:53:00
3:53 PM,17.1,9.0,71,29.83,10.0,ENE,11.5,-,N/A,,Overcast,60,2013-12-25 00:53:00
4:53 PM,17.1,9.0,71,29.81,10.0,ENE,10.4,-,N/A,,Overcast,70,2013-12-25 01:53:00
5:53 PM,17.1,8.1,68,29.78,10.0,ENE,10.4,-,N/A,,Scattered Clouds,60,2013-12-25 02:53:00
6:53 PM,16.0,7.0,68,29.78,10.0,NNE,8.1,-,N/A,,Clear,30,2013-12-25 03:53:00
7:53 PM,15.1,6.1,68,29.77,10.0,NE,9.2,-,N/A,,Scattered Clouds,50,2013-12-25 04:53:00
8:53 PM,14.0,6.1,71,29.76,10.0,NE,8.1,-,N/A,,Clear,40,2013-12-25 05:53:00
9:53 PM,12.9,5.0,71,29.75,10.0,NNE,6.9,-,N/A,,Clear,30,2013-12-25 06:53:00
10:53 PM,14.0,5.0,67,29.75,10.0,NE,6.9,-,N/A,,Clear,40,2013-12-25 07:53:00
11:53 PM,14.0,3.9,64,29.74,10.0,NNE,8.1,-,N/A,,Clear,30,2013-12-25 08:53:00